AZERSPACE 2 (IS-38)

Last updated on Thu Oct 23 2025 00:02:57 GMT+0000 (Coordinated Universal Time)

1 43632U 18074A 25295.48725020 .00000000 00000+0 00000+0 0 9997 2 43632 0.0191 244.1909 0001262 323.7255 43.7593 1.00271775 26063
UTC large
Height (km)
Speed (km/s)
/
Latitude / Longitude
Inclination (degrees)
Orbital Period (minutes)
Azimuth
Elevation
Range (km)
Doppler Factor

Next 0 passes for location: London (51.5072 / 0.1276)

Sorry there are no passes over London.